Theta_e
340 341 339 336 341 344 345 346 345 346 346 346 346 345 345 345 345 345 345 345 345 344 345 345 346 346 342 339 337 334 334 336 337 338 339 338 337 337 337 336 336 336 335 336 339 341 341 341 340 339 339 337 338 338 338 338 338 339 338 337 337 336 336 336 335 335 335 335 335 335 334 334 334 333 333 332 332 331 331 330 331 332 333 333 333
341 342 340 338 342 345 346 347 347 347 348 348 347 345 345 345 346 346 345 345 345 345 345 345 346 344 341 340 337 335 334 335 335 337 339 339 338 338 338 338 338 338 337 336 337 339 340 341 341 340 340 338 338 338 338 338 338 339 338 338 337 335 335 336 335 335 335 336 336 335 335 334 334 334 334 333 333 332 331 331 331 332 333 334 334
341 341 338 339 344 346 346 347 348 348 348 348 347 345 345 346 346 346 345 345 345 344 344 345 345 342 339 337 336 335 334 333 333 335 338 339 338 338 338 339 339 339 339 337 335 335 338 340 340 341 341 340 340 340 339 338 338 338 338 338 338 336 335 336 335 335 335 336 336 336 335 335 335 335 335 335 334 333 333 331 331 332 333 333 334
341 338 337 340 344 346 347 347 347 348 348 347 347 346 346 346 346 346 345 345 345 345 344 344 342 339 337 335 334 335 333 333 334 336 338 338 339 339 339 339 340 340 339 339 336 334 336 339 340 341 341 341 340 340 339 338 338 337 338 338 338 337 336 335 335 335 335 335 335 335 335 335 335 336 335 335 335 334 334 333 332 332 332 333 333
341 339 339 342 345 346 346 347 347 348 347 347 347 346 346 346 346 346 346 345 345 345 343 342 340 336 336 335 332 331 332 336 338 337 336 336 338 339 339 339 340 340 340 340 339 336 335 336 339 339 340 341 341 340 340 339 339 338 338 338 337 337 337 336 335 335 335 335 335 334 335 335 335 335 335 336 336 335 335 334 333 333 332 333 333
341 340 340 343 345 345 345 346 347 347 346 346 346 346 346 345 346 345 346 345 345 345 343 341 339 336 336 335 332 331 333 337 337 335 334 336 338 339 339 340 340 340 341 340 339 338 335 334 336 337 338 340 341 341 341 340 340 339 339 338 338 338 338 337 337 336 335 335 335 335 335 335 334 334 334 334 334 334 334 334 333 333 333 333 333
341 340 342 344 345 345 344 345 346 346 345 345 345 345 345 346 346 345 346 346 345 346 344 341 338 336 336 335 332 332 336 337 336 335 336 338 339 339 340 340 340 340 340 339 337 337 334 332 334 336 338 339 340 341 341 341 340 340 340 339 339 338 338 338 338 338 337 336 336 336 336 335 335 335 334 333 333 333 333 332 332 332 332 332 333
341 341 343 344 344 343 344 345 346 346 345 345 345 345 345 346 346 346 347 346 345 346 345 342 338 335 336 336 331 332 337 338 338 339 340 340 339 339 340 340 341 340 339 337 336 336 334 332 332 334 338 338 338 340 340 341 340 340 340 339 339 339 339 338 338 338 338 337 337 336 337 337 337 336 335 335 335 334 333 332 331 330 329 329 329
341 341 341 342 342 343 345 347 348 347 346 345 345 345 345 345 346 347 347 346 345 346 344 341 338 337 338 337 332 332 337 337 338 341 340 340 340 340 340 341 341 340 338 337 337 337 336 336 333 333 337 338 338 339 339 340 340 340 340 340 340 340 339 339 339 338 337 337 337 336 337 338 337 337 337 337 337 336 335 334 333 333 333 333 332
341 341 341 341 343 345 347 349 349 348 347 346 345 345 345 345 347 348 346 344 345 345 344 340 338 339 339 338 334 333 336 337 336 339 340 340 340 341 341 341 340 339 339 339 339 339 338 338 336 335 336 337 337 337 336 338 339 340 341 340 341 340 340 340 339 339 337 337 337 336 337 337 337 338 338 338 338 337 336 335 335 336 337 337 336
343 343 343 344 346 347 349 350 349 348 346 345 344 345 345 345 347 347 345 343 345 345 343 338 336 338 338 339 337 335 336 337 335 337 340 340 339 341 341 340 339 339 339 338 339 340 340 340 339 336 336 337 337 336 335 336 336 337 339 339 340 340 340 340 340 340 339 337 337 337 337 337 337 338 338 338 337 336 336 336 336 336 337 337 336
345 346 347 347 348 349 350 350 349 347 346 346 345 345 345 345 346 345 343 343 344 345 342 339 338 336 333 335 338 337 336 336 335 337 340 339 338 338 338 337 335 335 335 336 337 339 340 340 340 337 337 337 337 337 337 337 335 335 337 338 338 339 340 340 339 340 340 339 338 338 338 338 338 338 339 338 336 336 336 336 336 337 337 337 337
346 347 348 348 349 349 350 350 349 348 348 347 346 346 345 345 345 344 342 343 344 344 342 341 338 334 332 333 335 336 336 336 334 336 340 339 337 336 336 335 334 333 332 333 334 335 337 340 340 338 338 338 338 338 339 339 337 337 337 338 338 338 339 340 340 340 340 340 339 339 339 339 339 339 339 338 338 338 337 337 337 338 337 337 337
346 347 348 348 349 349 350 350 349 349 349 348 348 347 346 345 345 344 343 343 343 343 342 340 336 333 333 334 335 334 334 335 333 335 339 339 336 336 336 335 333 332 331 330 330 332 334 336 337 338 338 338 338 338 339 339 339 339 339 338 338 338 339 340 340 340 339 339 340 339 339 339 339 340 339 338 339 339 337 337 338 339 339 338 338
345 346 347 348 349 349 349 349 349 349 349 349 349 348 347 346 345 344 343 342 342 342 342 339 335 333 332 334 337 336 334 334 333 335 339 338 337 337 335 334 332 329 330 330 330 329 330 331 333 334 335 336 335 335 336 337 338 337 337 337 337 338 339 339 339 339 338 339 339 339 339 339 339 340 339 338 338 338 338 337 338 339 339 338 338
344 345 346 347 348 349 349 349 349 349 349 349 350 348 347 346 345 344 343 342 342 341 339 335 333 333 333 334 336 335 336 337 334 335 338 338 338 337 334 332 330 328 329 328 326 326 325 327 329 328 328 329 331 333 334 335 336 334 332 332 332 331 331 331 332 331 330 330 331 333 333 334 334 335 335 334 334 334 334 334 336 338 338 338 338
343 343 345 346 347 348 349 349 349 350 350 351 350 348 346 345 345 345 342 341 342 339 335 331 331 333 333 334 336 336 337 337 337 336 336 337 338 338 334 330 329 328 329 326 324 326 326 327 327 326 325 325 325 328 329 331 330 327 324 323 323 322 321 320 320 320 319 319 319 320 321 321 322 323 323 322 322 323 323 324 327 330 331 332 332
342 342 344 344 345 347 348 349 349 350 351 351 351 348 347 346 346 345 341 340 339 335 332 328 330 333 331 331 334 337 337 337 338 338 337 336 337 338 334 329 328 328 327 326 326 329 330 329 328 327 327 326 325 324 323 322 322 320 319 319 318 318 317 317 316 316 316 316 316 315 315 315 316 316 316 316 316 317 317 317 318 319 320 320 320
342 342 343 343 344 346 347 348 349 350 351 352 351 349 348 347 346 344 339 338 336 330 329 328 330 333 331 328 328 334 337 337 337 338 338 337 336 337 334 329 328 328 327 327 327 329 331 330 328 327 327 327 326 324 321 320 319 319 319 319 319 318 318 317 317 316 316 316 316 315 315 315 315 314 314 314 314 315 315 316 316 316 316 316 316
342 342 342 342 343 344 346 347 349 350 351 351 350 349 349 348 347 342 337 336 332 327 325 325 330 333 331 328 327 329 335 337 337 337 338 339 337 336 334 330 328 328 328 328 328 329 331 330 328 327 327 326 325 323 323 322 322 323 323 323 323 322 321 321 321 321 321 321 321 320 319 319 318 317 316 316 315 314 314 314 315 315 315 315 315
341 342 342 342 343 343 345 347 348 350 351 350 350 350 350 349 346 342 335 333 329 325 323 323 329 333 332 330 329 329 333 336 336 336 337 338 338 337 334 332 330 329 329 329 329 329 330 330 329 327 326 326 325 325 326 326 326 327 327 326 326 326 326 326 326 326 326 326 325 324 324 323 322 321 320 319 318 317 316 315 315 314 314 314 314
341 341 341 342 342 343 344 345 347 349 350 350 349 349 349 348 346 342 335 331 326 323 323 323 327 332 333 332 331 330 333 335 336 336 336 336 337 337 336 335 333 331 330 330 329 329 330 330 330 328 327 326 326 327 327 328 328 328 328 328 328 328 328 328 328 328 327 327 327 326 326 325 325 324 323 322 320 319 319 318 318 317 317 317 316
340 341 341 342 342 342 342 343 344 347 348 347 347 347 348 348 347 342 336 331 326 323 323 324 326 330 332 332 332 332 333 335 336 337 336 337 336 337 337 335 334 333 332 331 329 329 330 330 330 330 329 328 327 328 329 329 329 329 329 329 329 329 329 329 329 328 327 326 326 326 326 325 325 325 324 324 323 322 321 320 320 320 320 320 320
340 340 340 341 341 342 342 342 342 344 344 345 345 346 346 347 346 341 337 333 328 323 322 323 325 327 329 330 331 332 332 333 335 336 336 336 336 337 337 335 335 334 332 331 331 330 329 329 330 330 331 330 329 329 329 329 329 329 329 329 329 329 329 329 329 329 328 327 327 326 326 325 325 325 325 325 324 323 323 322 322 321 321 321 320
338 339 338 339 340 341 341 341 341 342 342 343 344 345 345 346 345 340 337 334 330 325 322 322 322 324 327 329 330 331 331 331 333 334 335 334 333 335 336 334 335 335 333 332 332 331 330 329 329 330 331 331 331 331 330 330 330 329 329 329 329 329 329 329 329 329 328 328 327 327 327 326 326 326 326 326 326 325 325 324 323 323 322 322 322
337 337 336 337 338 339 339 339 340 341 341 342 343 344 345 345 344 340 337 336 333 327 324 322 322 322 324 328 329 330 331 331 331 332 334 334 332 333 333 332 333 334 333 332 332 332 332 331 330 330 330 331 332 332 331 331 331 330 330 330 329 329 329 329 329 329 328 328 327 327 327 326 326 326 326 326 327 327 326 326 326 325 324 324 324
337 336 336 336 336 336 337 337 338 339 341 342 342 343 344 344 342 339 337 336 334 329 325 324 323 322 323 324 326 327 329 330 331 332 334 333 333 333 332 332 333 333 332 332 331 331 331 331 330 330 330 331 331 332 332 331 330 330 330 330 330 329 329 328 328 328 327 326 326 326 326 326 327 327 327 326 327 327 327 327 327 326 326 325 325
336 336 336 336 335 335 335 335 337 338 340 342 342 342 342 343 341 339 337 336 334 329 326 324 324 324 324 323 323 323 324 326 329 331 332 331 331 332 333 333 334 335 335 334 332 332 331 330 331 331 330 331 331 331 331 331 329 329 329 330 330 329 329 329 328 327 326 326 326 326 326 326 326 327 327 327 327 327 327 327 327 327 327 326 326
336 336 335 335 335 335 335 335 335 338 340 341 341 341 341 341 340 339 337 336 334 330 326 323 322 323 323 322 321 321 321 322 324 328 330 330 329 330 332 333 333 335 336 336 335 334 332 331 332 331 328 328 328 329 329 328 327 327 328 329 329 328 328 328 327 327 326 326 325 324 323 323 324 324 325 326 326 327 327 327 328 328 328 327 327
337 336 335 335 335 335 335 335 335 337 340 341 341 341 341 340 340 339 338 337 336 332 326 322 322 322 321 320 320 321 320 320 321 323 326 328 328 328 330 331 332 333 334 335 335 335 333 331 331 330 327 326 326 326 326 326 326 326 327 328 327 327 326 326 326 326 326 325 323 322 321 320 320 320 321 322 322 323 324 325 326 327 327 328 328
336 336 335 335 335 335 335 335 336 337 340 340 340 341 340 340 339 339 338 336 336 334 328 323 321 321 321 320 320 320 320 321 321 321 322 324 326 326 328 330 331 331 332 333 335 335 332 331 332 330 328 326 324 324 325 325 325 326 327 327 326 325 325 325 326 326 325 325 324 322 320 318 318 317 317 318 318 319 320 320 321 323 326 327 328
337 335 335 334 334 335 335 336 337 338 339 340 340 340 340 339 338 338 337 336 336 336 332 326 321 321 321 321 321 321 322 322 321 321 322 322 323 324 326 329 331 332 332 332 333 334 332 331 332 331 328 325 324 324 324 325 325 325 326 326 325 325 326 326 326 326 326 327 325 323 321 318 317 317 317 317 317 319 320 320 320 321 323 326 327
340 337 334 333 333 333 335 336 338 338 339 340 340 341 341 340 339 338 337 336 336 336 335 331 326 323 321 321 322 323 324 324 322 322 322 322 322 323 323 326 328 330 331 332 332 333 333 332 331 330 328 325 324 324 324 325 325 325 325 325 325 326 327 327 327 328 328 328 327 326 323 320 317 317 317 317 319 322 323 323 323 324 324 326 327
345 341 337 334 332 332 333 335 337 338 339 339 340 341 342 342 340 338 337 335 335 335 336 335 333 328 326 323 323 323 325 326 325 324 323 321 321 322 321 322 323 324 326 329 330 332 332 331 330 329 327 325 324 325 325 325 325 325 325 326 326 326 327 328 329 330 330 329 329 328 325 321 317 317 318 319 321 323 324 325 325 325 326 326 326
346 345 341 337 334 332 332 333 335 337 338 340 340 340 341 342 342 340 338 336 335 335 335 336 336 335 333 330 328 326 326 326 326 325 325 323 321 321 320 320 320 320 321 324 326 327 329 329 328 328 327 325 325 324 325 326 326 326 327 327 327 327 328 329 330 331 331 330 330 329 327 322 318 317 318 319 321 322 324 324 325 325 325 325 325
346 346 345 343 339 335 332 332 333 334 336 339 340 340 341 341 343 342 340 338 336 335 335 336 337 337 337 336 334 332 330 329 327 326 325 324 322 320 320 319 320 320 320 322 324 325 326 327 327 327 327 326 325 325 326 327 326 326 327 327 327 328 329 331 331 331 331 331 330 328 326 322 318 317 317 319 320 321 323 324 324 324 324 324 324
347 347 347 346 344 339 334 332 333 334 335 337 339 340 341 341 342 342 342 341 339 337 336 335 336 337 338 338 337 336 335 334 332 330 327 326 324 322 321 320 320 320 320 321 324 326 327 327 327 327 327 326 325 325 326 327 328 328 327 327 327 329 330 331 332 332 332 331 330 328 325 321 319 318 318 320 322 322 323 323 323 324 324 324 323
347 347 347 347 346 343 337 333 333 334 334 336 338 339 340 341 341 342 342 342 341 339 338 336 336 336 337 339 339 339 339 338 337 336 334 331 327 324 323 323 321 320 321 321 323 326 328 328 329 329 328 326 324 324 324 326 327 328 328 328 328 329 330 331 331 332 332 331 330 327 323 321 319 319 319 320 322 323 322 322 322 322 322 322 321
348 348 347 347 347 345 341 336 333 333 334 335 337 338 340 340 341 341 342 342 342 341 339 338 337 336 337 339 340 340 339 339 340 340 340 338 334 328 325 325 325 324 323 322 323 326 328 329 330 330 330 328 325 324 324 325 326 328 329 329 329 330 330 331 331 331 332 331 330 327 324 321 320 319 319 320 321 322 321 320 320 319 319 318 318
348 348 348 348 347 346 344 340 335 333 333 334 336 337 339 340 340 341 341 342 342 342 340 339 338 337 336 338 340 340 340 339 340 341 341 342 341 336 330 327 327 328 326 324 324 324 326 328 328 329 331 331 328 327 327 327 328 329 330 330 330 330 330 331 331 331 330 329 329 327 325 323 321 320 320 320 320 320 320 319 318 318 317 317 317
348 348 348 348 348 347 346 343 339 335 333 334 335 337 338 339 340 340 340 341 341 341 341 340 340 338 337 338 339 339 340 340 341 342 343 343 343 341 337 331 329 329 329 328 326 325 325 326 327 328 331 331 328 328 329 329 329 329 329 330 329 329 330 331 331 329 328 328 326 325 325 324 321 320 320 320 320 320 319 318 318 317 317 318 318
348 349 348 348 348 348 348 346 342 337 334 333 334 335 337 338 339 339 339 340 340 341 341 341 341 339 339 339 339 339 339 341 342 343 344 344 344 343 341 337 332 330 330 331 329 326 324 325 326 328 330 330 328 329 331 330 329 328 328 329 330 331 332 331 329 329 328 326 325 324 324 323 322 321 320 319 320 319 319 318 318 317 317 318 318
348 348 349 349 349 348 348 348 344 339 334 332 334 335 336 337 338 339 339 339 340 340 340 341 341 341 341 341 341 341 341 342 343 344 345 345 345 343 341 339 336 332 331 331 330 327 324 325 326 329 331 331 330 331 331 330 329 329 329 330 331 332 332 331 329 328 327 325 325 325 324 323 321 320 319 319 319 319 318 317 317 317 317 317 317
349 349 349 349 349 349 349 348 345 340 334 332 333 334 335 336 337 338 338 339 339 340 340 341 341 341 342 343 344 344 344 344 345 346 346 346 345 344 341 340 338 333 330 330 330 328 326 326 327 330 332 331 331 331 331 331 331 331 331 331 332 333 333 331 329 327 327 327 326 325 325 324 321 320 319 318 317 317 317 316 316 316 316 316 315
348 349 349 349 349 349 349 349 346 342 336 333 333 333 334 335 337 338 338 338 339 340 339 340 340 341 343 344 345 345 345 346 346 347 347 347 346 344 342 340 338 334 330 329 330 330 329 328 329 330 331 331 331 331 332 333 332 331 330 330 331 332 332 331 328 328 328 326 324 325 326 325 321 319 318 317 316 316 315 315 314 313 312 311 310
349 349 349 349 349 349 350 349 348 344 339 335 334 334 334 334 336 337 338 338 339 339 339 340 340 341 343 345 346 347 347 347 348 348 348 347 347 345 342 340 338 334 330 330 332 333 332 330 329 329 330 331 332 333 333 333 331 330 330 330 331 332 331 330 328 327 326 324 322 323 324 323 319 318 317 316 315 315 315 315 313 311 309 307 306
349 349 349 349 349 349 350 350 349 346 341 337 336 335 334 334 335 336 337 338 338 339 340 340 341 342 344 346 347 348 348 348 348 349 348 348 347 345 343 341 339 335 331 331 332 334 333 329 327 327 330 332 334 335 334 332 330 331 331 331 331 331 330 328 327 326 325 324 321 320 320 320 318 318 317 315 315 315 315 314 312 309 307 305 304
350 350 349 350 350 349 350 350 350 348 345 343 341 339 338 337 337 337 337 337 338 339 339 340 342 343 345 346 348 349 349 349 349 349 349 348 347 345 343 341 339 337 335 333 332 333 333 329 326 328 331 333 334 334 332 330 330 331 331 331 331 330 329 328 327 326 326 324 320 317 318 318 317 318 317 315 315 315 314 312 310 308 306 304 304
349 349 349 350 350 350 350 350 350 350 349 349 346 342 342 342 341 340 338 337 338 339 339 341 342 344 346 347 348 349 350 350 350 350 349 348 347 344 342 341 339 338 338 336 333 333 331 328 326 328 331 333 334 332 330 330 331 332 332 331 330 329 328 328 327 326 324 323 320 317 316 317 316 316 316 314 313 313 313 311 309 307 305 304 303
349 349 349 350 350 350 350 350 350 349 350 350 347 343 342 342 342 341 340 339 340 340 341 343 343 344 346 347 349 350 350 349 350 350 349 347 346 344 342 341 339 338 338 336 333 331 329 326 326 329 332 334 332 330 329 329 331 331 331 330 329 328 326 325 325 324 322 322 320 316 316 316 316 315 314 313 313 312 311 310 309 306 304 302 302
350 350 350 350 349 349 349 349 350 349 350 350 347 343 342 341 342 343 343 343 343 342 344 345 345 345 346 348 349 350 350 349 350 350 349 347 345 343 341 340 339 338 337 334 331 328 326 326 329 332 333 332 330 329 330 330 331 331 329 327 325 323 321 321 323 322 321 321 319 316 315 316 315 315 314 312 312 312 310 308 306 303 302 302 302
Wind_Speed
9 9 7 7 6 6 4 2 1 1 2 3 4 5 4 4 4 5 6 7 7 8 8 8 8 5 2 2 3 4 3 2 2 1 1 2 1 1 1 2 2 2 2 2 3 6 6 5 6 7 6 6 7 6 6 6 6 6 6 5 5 5 5 5 5 5 5 5 5 5 5 4 3 3 3 2 2 3 2 2 3 4 4 4 4
9 10 9 8 7 6 4 3 2 1 2 3 5 5 5 5 5 6 7 7 8 9 9 8 7 5 2 3 4 5 4 3 4 3 2 3 2 2 2 2 3 3 4 3 3 4 5 5 5 7 7 7 8 7 7 7 6 7 7 6 6 6 6 6 6 6 6 6 6 6 5 5 4 4 4 3 3 3 3 3 3 3 4 5 5
10 10 9 9 8 6 4 3 2 2 3 3 4 5 5 5 6 7 8 8 9 9 8 6 4 2 1 3 5 5 5 6 5 3 2 4 5 4 2 2 3 4 5 4 3 3 4 5 5 7 8 8 9 8 7 8 7 8 8 8 8 7 7 7 7 7 6 6 7 6 6 6 5 5 5 5 4 4 4 3 3 4 5 5 6
10 10 10 9 9 6 5 4 3 3 4 4 4 5 6 6 7 8 9 9 9 8 6 4 2 1 2 4 4 6 7 5 3 3 2 4 5 6 4 4 4 5 5 5 4 3 3 4 5 8 9 8 9 8 8 8 8 8 8 9 9 8 8 8 8 7 7 7 7 7 7 7 7 7 7 6 6 5 4 4 4 4 5 6 6
11 11 10 10 8 6 5 4 3 4 5 5 5 6 7 8 8 9 10 9 8 7 4 2 1 2 3 4 5 6 6 4 2 2 3 4 5 6 6 5 5 5 6 5 4 4 3 3 5 6 6 7 8 8 8 8 8 9 9 8 8 9 9 9 8 7 7 8 7 7 8 8 8 8 8 7 7 7 6 6 5 5 6 6 7
12 11 11 9 8 6 4 3 3 4 5 6 6 6 7 8 9 10 10 10 8 6 5 3 2 3 4 5 6 6 4 4 4 4 4 4 4 5 7 7 6 6 6 5 5 4 3 2 3 4 4 5 6 7 8 8 9 10 9 8 9 10 10 9 8 8 8 8 9 9 9 9 8 8 7 7 7 7 7 7 7 7 7 7 7
12 12 11 9 7 6 4 4 4 5 5 6 7 7 8 9 10 11 11 11 8 6 6 5 3 4 5 5 6 6 4 3 4 3 3 4 4 5 6 6 6 5 4 4 4 3 3 1 2 3 3 4 5 6 8 9 10 11 11 10 11 11 10 9 9 9 10 10 11 11 10 10 9 8 8 8 7 8 8 8 8 8 9 9 9
13 13 11 9 8 6 5 5 5 6 6 6 7 8 9 10 11 11 11 10 7 5 7 6 3 4 5 5 6 5 4 4 2 1 1 2 3 4 5 5 4 3 2 2 2 2 2 2 1 1 3 4 4 5 6 7 10 11 11 10 11 11 10 9 9 10 11 12 12 11 11 11 11 9 9 9 9 8 8 9 9 9 9 9 10
14 13 12 10 9 8 6 6 7 6 6 7 8 9 10 11 12 12 11 9 5 4 6 6 3 3 5 5 5 4 4 4 2 1 2 1 0 2 3 3 1 0 1 1 1 2 2 3 2 1 3 4 3 3 3 5 8 9 10 10 11 11 10 10 10 11 11 11 11 11 10 11 12 11 11 11 10 9 10 10 11 10 9 10 11
14 13 12 11 10 9 8 8 8 7 7 7 8 9 10 12 12 11 11 8 4 4 6 5 3 3 5 5 4 4 5 5 4 2 1 2 3 2 1 2 1 1 2 3 2 2 3 3 3 1 2 3 3 2 2 3 5 5 7 9 10 10 10 10 11 11 11 11 11 11 11 11 12 12 12 13 11 10 11 12 12 12 12 12 12
14 13 12 11 10 9 9 8 8 8 7 7 8 9 11 12 11 10 10 7 4 6 6 4 3 4 5 6 5 4 5 5 5 3 1 3 4 4 4 4 3 2 2 3 3 3 4 4 3 2 2 2 2 1 2 3 3 3 4 6 6 7 8 9 10 11 11 11 11 11 11 11 11 12 12 12 11 11 12 12 13 13 13 13 13
14 13 12 11 10 9 9 8 8 8 7 7 8 9 11 12 11 10 9 6 5 6 6 5 6 7 6 6 6 6 6 5 5 4 2 3 4 5 5 4 3 3 2 3 3 3 4 5 3 2 2 1 1 1 2 3 3 3 4 5 4 5 6 7 8 9 10 11 11 11 11 11 11 12 12 12 11 12 12 12 14 14 14 14 14
14 14 13 12 11 10 9 9 9 8 7 7 8 10 11 12 11 11 9 6 6 7 7 8 8 7 5 4 6 7 6 5 5 4 4 3 6 6 5 4 3 2 3 3 4 3 4 5 3 2 1 1 1 1 2 1 2 3 4 4 4 4 4 5 5 7 8 9 10 10 11 11 12 11 12 13 12 12 13 13 14 14 15 15 14
16 15 14 13 12 11 10 9 9 9 8 8 9 10 11 12 11 10 8 7 7 8 8 8 6 4 3 3 4 6 6 5 5 5 6 4 5 5 3 3 3 3 3 4 4 3 3 3 3 3 2 2 2 1 1 1 1 2 2 3 3 3 3 3 3 4 6 7 8 8 8 9 10 10 10 11 10 10 11 11 12 13 14 14 14
17 16 15 14 13 11 10 10 9 9 9 9 10 10 11 11 10 10 8 8 8 9 9 7 4 3 2 2 2 3 4 6 5 6 8 5 4 4 2 2 2 3 3 3 3 2 1 1 1 2 2 2 1 1 1 2 2 3 2 2 2 1 1 1 1 1 3 3 4 4 4 6 7 6 6 7 6 6 7 8 9 11 12 12 12
17 17 17 15 13 12 11 11 10 10 10 10 10 11 11 11 10 9 8 7 8 8 9 7 4 3 2 1 2 3 4 5 6 8 8 6 5 4 2 0 1 2 2 3 3 3 3 3 3 3 3 2 1 1 1 1 2 2 3 3 3 3 3 3 3 3 2 1 1 2 2 4 4 4 4 5 5 5 6 7 7 8 9 9 10
19 18 18 16 14 13 12 12 11 11 10 10 11 10 10 10 10 10 8 7 7 8 9 6 4 4 3 2 2 3 3 4 5 7 9 7 6 5 3 2 1 1 2 4 5 6 6 5 5 5 4 3 2 1 0 0 1 2 2 2 2 2 2 3 3 3 3 2 2 2 2 3 3 4 4 5 5 5 6 7 7 7 8 8 9
20 20 20 18 16 15 14 14 13 12 11 11 11 11 11 10 10 9 9 8 8 8 8 6 4 5 6 4 3 3 3 4 5 6 8 9 8 6 6 4 3 2 3 5 6 6 5 5 4 3 2 2 1 0 0 0 1 2 2 1 1 1 2 2 2 2 1 1 2 2 3 4 4 4 5 5 5 5 6 6 7 7 7 7 8
21 20 20 18 17 16 15 15 14 13 12 12 12 11 11 11 10 9 9 8 8 8 7 6 5 6 7 6 5 5 3 4 5 5 6 8 9 9 8 7 5 4 4 5 5 4 3 4 3 2 1 1 1 1 1 2 2 2 2 2 2 2 2 3 2 2 2 1 1 2 3 3 4 5 5 6 6 7 7 7 7 8 8 8 8
21 20 20 19 18 17 16 16 16 15 14 13 12 12 12 12 10 9 9 8 8 8 7 6 7 7 7 6 6 7 6 5 5 5 5 5 8 10 10 8 7 7 6 6 5 3 2 2 2 2 1 1 2 3 3 4 3 3 3 3 3 4 4 4 4 4 3 3 3 3 4 4 5 5 5 6 6 7 7 8 8 9 9 10 10
22 21 20 19 18 17 17 17 17 16 15 14 13 13 13 12 10 9 9 7 7 7 7 7 8 8 7 6 5 6 7 7 6 6 6 5 6 9 9 8 8 8 7 7 6 5 3 1 2 2 2 3 4 4 4 4 4 3 3 3 4 4 4 4 4 4 4 4 4 4 5 5 6 6 6 6 6 7 7 8 8 9 10 10 10
22 22 21 20 19 18 18 18 18 18 17 16 15 14 13 12 10 9 9 8 7 7 7 8 9 9 7 6 6 6 6 7 7 6 7 7 6 6 7 8 8 9 8 8 8 7 5 3 2 2 3 4 4 4 3 3 2 2 2 2 3 3 4 4 4 4 4 4 4 4 4 5 5 5 5 6 7 7 8 8 9 9 10 10 11
23 22 21 21 20 19 19 19 19 19 18 17 16 14 13 12 11 10 10 9 8 8 8 8 9 10 9 9 8 7 7 7 7 7 8 8 7 6 6 8 8 9 9 10 10 9 7 5 4 3 3 4 5 5 4 3 2 1 0 1 2 2 3 4 4 4 4 4 4 5 5 5 5 5 5 5 6 7 8 9 9 10 10 11 12
24 23 23 22 22 21 20 20 20 20 19 18 16 14 13 13 12 11 11 10 9 9 8 8 10 10 10 10 9 8 8 8 7 9 9 9 9 7 7 9 10 10 11 11 11 11 10 9 7 6 5 4 5 6 6 5 5 4 3 3 3 3 4 5 6 5 5 5 5 6 6 7 7 7 7 7 7 8 9 10 10 11 11 12 13
25 24 23 23 23 22 21 21 21 20 19 18 17 15 14 14 13 13 12 11 10 10 9 8 9 10 10 10 10 9 8 8 8 9 10 10 10 9 9 11 10 9 10 11 11 12 11 10 10 9 8 7 7 7 7 7 7 7 7 6 6 6 7 8 8 8 8 8 8 8 8 8 9 9 9 9 10 10 10 10 11 12 13 13 14
26 25 23 23 23 22 22 21 21 21 20 19 17 16 15 14 14 14 13 12 11 11 11 9 9 10 11 11 11 10 9 9 9 9 9 9 9 9 10 10 9 9 9 10 10 10 10 10 10 10 10 10 10 10 9 9 9 9 10 10 10 10 10 10 11 11 11 11 11 11 11 11 11 12 12 12 12 12 12 13 13 13 14 15 15
27 26 24 23 23 23 22 22 22 22 21 20 18 17 16 15 16 16 15 13 13 13 12 12 11 11 11 11 11 11 11 10 10 10 9 9 9 9 9 8 8 8 9 9 9 9 9 9 10 11 11 11 12 12 12 11 10 10 11 11 11 11 12 12 13 13 14 13 14 14 14 14 14 15 15 15 15 16 16 16 16 16 16 16 16
29 28 26 25 25 24 24 23 23 23 22 21 20 18 17 16 17 17 16 15 14 14 14 13 13 12 12 12 11 12 12 12 12 11 10 9 9 9 9 9 8 7 7 8 9 9 8 9 9 10 10 11 12 13 13 12 11 9 9 10 11 11 12 13 13 14 15 15 15 15 15 16 16 17 17 17 18 18 19 19 19 19 19 18 17
30 29 28 27 26 26 25 25 25 24 23 23 21 20 18 18 18 18 17 16 15 14 15 14 14 13 13 13 12 12 12 13 13 13 12 11 10 10 10 10 10 9 8 8 8 8 7 7 8 9 10 10 11 11 11 11 10 9 9 10 11 11 11 12 13 14 15 16 16 16 17 17 17 18 18 19 19 19 20 20 20 20 20 20 19
30 30 29 27 27 27 26 26 26 25 24 24 23 21 20 19 19 19 19 18 17 16 16 16 15 15 15 14 14 13 12 13 13 13 13 12 11 11 12 12 12 12 11 10 9 9 9 7 8 9 10 10 10 10 10 10 10 10 10 10 10 10 10 11 12 13 14 16 17 17 17 18 18 19 19 20 20 21 22 22 22 21 21 20 20
30 29 29 28 28 28 27 27 27 26 25 25 24 22 21 20 20 20 20 20 19 18 17 17 17 16 16 15 15 14 13 13 13 14 14 13 12 12 13 13 13 14 14 13 12 11 10 9 9 11 11 10 10 10 10 11 10 10 9 9 9 9 10 10 11 12 14 15 16 17 18 18 18 19 20 21 21 22 22 23 23 23 22 21 20
30 30 29 29 29 29 28 28 29 27 26 26 25 24 23 22 21 21 21 21 21 20 18 18 18 17 17 17 16 14 13 13 14 14 14 14 14 14 14 15 15 15 15 15 14 13 12 11 12 13 12 11 11 11 11 12 11 11 10 9 9 9 10 10 11 12 13 14 15 16 17 18 18 19 20 21 20 20 20 20 21 22 22 22 22
30 30 31 30 30 30 30 30 30 28 27 27 26 25 24 23 22 22 22 22 22 22 21 19 19 18 18 17 17 15 14 14 15 15 15 15 15 15 15 16 17 17 16 16 17 16 15 14 14 14 13 11 12 12 12 13 12 11 10 10 10 10 9 10 11 11 12 13 14 15 16 17 18 19 19 19 19 18 17 17 18 19 20 21 21
30 30 31 32 32 31 31 32 31 29 29 28 27 27 26 25 23 23 23 23 24 23 23 22 21 20 19 18 17 16 15 15 15 16 16 16 16 16 17 17 17 18 17 17 17 17 17 16 15 14 13 12 12 12 12 13 13 12 12 11 11 10 10 11 11 11 12 13 15 16 16 16 17 17 18 18 18 18 17 17 17 18 18 19 20
32 31 31 32 33 33 33 33 33 31 30 29 29 29 28 26 25 25 24 24 24 24 24 23 22 21 20 18 17 17 16 16 16 16 16 17 18 18 18 18 17 18 17 17 17 17 17 17 15 14 13 12 12 12 12 13 13 13 13 13 12 11 11 11 11 12 14 15 17 17 17 16 17 17 17 18 19 19 19 19 19 19 19 19 19
34 33 32 32 33 34 35 35 35 33 32 31 31 30 29 28 27 26 25 25 25 25 25 24 23 22 21 20 18 17 16 16 17 16 17 18 19 19 19 19 18 17 17 16 15 15 15 16 16 14 13 13 12 12 13 13 14 14 14 14 13 12 11 11 12 14 16 17 18 18 18 17 17 17 17 18 18 19 20 20 21 21 21 21 20
36 34 33 33 34 36 37 37 36 35 34 33 33 32 31 30 29 28 27 26 25 25 25 25 24 23 22 21 20 19 18 18 18 18 18 18 19 20 20 20 19 18 17 16 15 15 15 16 16 15 15 14 13 13 14 15 15 15 15 15 14 12 12 13 13 15 17 19 20 19 18 18 18 17 17 17 18 19 20 21 21 22 22 23 23
37 36 36 35 36 37 38 38 38 36 35 35 34 34 33 32 31 30 29 28 27 26 25 25 25 24 23 22 21 21 20 20 19 18 18 18 20 21 22 21 20 18 17 17 16 16 16 16 16 16 16 15 15 15 15 15 16 16 16 17 16 14 13 15 16 16 17 18 19 19 18 18 18 18 18 18 18 19 19 20 21 22 22 23 24
39 38 37 37 37 37 38 39 39 38 37 36 36 35 35 34 33 32 30 29 28 27 27 26 25 24 24 23 22 22 22 22 21 19 18 18 19 21 22 22 21 20 19 18 17 17 17 18 17 17 17 16 15 16 16 16 17 17 17 17 17 16 15 17 17 17 18 18 18 19 18 19 19 19 18 18 18 19 20 21 22 22 22 22 22
40 39 38 38 38 38 38 39 40 39 39 38 38 37 37 36 35 33 32 31 30 29 28 27 25 25 24 24 24 24 24 23 21 20 19 19 19 19 20 21 22 21 20 20 19 19 19 19 19 19 18 17 16 15 16 16 17 18 18 18 19 19 18 18 18 18 19 19 19 21 22 23 22 20 19 19 19 20 22 22 22 21 21 20 21
40 40 39 39 39 39 39 39 40 41 41 40 40 40 38 37 36 35 33 33 31 30 29 28 27 25 25 24 25 25 24 23 21 21 20 20 20 19 18 19 21 22 22 21 21 20 20 20 20 19 18 18 17 16 16 17 17 18 19 20 21 21 20 20 20 19 19 20 22 25 26 24 21 20 21 21 21 21 21 20 20 19 19 20 21
41 41 40 40 41 41 40 40 41 42 43 43 42 41 40 38 36 35 34 34 32 32 31 30 28 26 25 24 24 24 24 24 23 23 22 22 22 20 19 19 20 21 22 23 23 22 21 21 21 19 19 20 18 16 16 18 19 20 21 21 22 21 20 22 23 20 19 21 24 26 24 21 19 21 23 23 23 22 21 20 19 19 19 20 21
42 42 42 42 41 41 41 41 42 44 45 44 43 42 40 38 37 35 34 34 33 33 33 31 29 27 25 24 23 24 24 25 24 23 23 23 22 21 21 20 20 21 22 23 24 23 23 22 21 19 19 19 18 16 18 20 20 20 21 21 21 21 21 23 23 22 21 21 22 22 21 20 21 22 24 24 24 23 23 22 21 20 21 21 22
43 44 43 42 42 42 42 43 43 45 46 44 43 42 40 39 37 36 34 34 34 35 34 32 29 27 25 25 24 24 25 24 23 23 24 22 21 22 23 23 21 21 22 22 23 24 23 22 20 19 18 18 18 18 19 20 20 21 21 21 21 21 21 22 22 21 20 19 19 19 18 18 19 22 24 24 23 23 23 23 22 22 23 23 24
44 45 44 43 43 43 44 44 44 45 46 45 44 43 41 39 38 36 34 34 35 35 34 31 29 27 27 26 25 25 25 23 22 23 23 22 21 21 23 24 23 22 22 22 23 23 23 21 20 19 19 19 19 19 19 19 21 22 22 21 22 21 21 21 21 19 18 18 19 16 14 15 18 21 23 22 22 22 22 23 23 23 24 24 24
46 46 45 44 45 45 45 45 45 45 46 46 45 44 42 41 38 36 35 34 35 36 34 30 28 28 28 27 26 25 24 22 22 23 22 21 20 20 21 24 25 23 22 23 23 23 23 22 21 20 20 19 19 18 19 20 21 22 22 22 22 20 19 20 20 19 19 18 18 16 14 16 19 19 19 20 21 21 22 22 23 23 23 23 21
48 47 46 45 45 45 45 46 46 46 46 47 47 45 43 41 39 37 36 35 36 36 34 30 29 29 29 28 27 27 25 23 23 22 21 20 19 19 20 24 25 23 22 23 24 23 23 23 22 20 19 19 19 19 21 21 21 21 20 19 19 18 18 18 17 16 15 15 16 17 17 17 16 16 17 20 21 22 22 22 23 22 21 20 19
49 48 47 46 46 46 46 47 47 47 47 47 48 46 44 42 40 38 37 37 37 38 35 31 29 30 30 29 29 28 26 23 23 21 19 19 20 20 21 24 24 20 19 22 23 22 22 22 21 19 18 19 19 20 21 20 19 19 17 16 16 16 16 14 12 11 10 12 15 16 16 15 14 15 19 21 23 23 22 21 21 20 20 19 19
49 49 48 48 47 46 47 47 47 48 47 47 48 47 44 41 40 40 39 38 39 39 36 32 30 30 31 31 31 29 26 24 22 20 18 19 20 20 21 24 23 18 16 20 21 20 21 21 20 18 17 18 19 20 19 17 16 16 16 15 14 12 10 10 10 10 10 11 13 13 13 14 15 18 21 23 24 25 23 21 21 21 21 21 21
49 49 48 49 48 47 47 47 47 48 47 46 47 47 44 42 41 41 40 39 40 41 38 34 32 31 32 32 31 28 25 23 21 19 19 19 19 20 21 23 21 18 17 19 20 20 20 20 19 17 17 18 19 18 15 13 13 14 14 13 10 9 10 11 11 11 10 10 11 11 12 14 17 19 22 24 24 23 23 23 22 21 22 23 24
49 49 49 49 48 46 46 47 47 47 47 47 48 47 45 43 42 41 41 40 41 41 39 36 34 33 34 33 31 27 25 23 21 20 19 20 20 20 21 21 18 16 17 18 19 20 20 19 17 16 16 18 18 16 14 13 13 13 13 11 10 11 12 11 10 9 8 8 10 12 13 15 18 19 21 21 20 21 23 25 24 22 22 24 26
Wind_Direction
202 202 203 197 197 198 190 172 183 315 7 6 1 357 348 339 324 318 313 306 298 299 301 297 298 303 263 263 313 321 299 256 230 244 328 348 22 43 25 33 45 29 358 304 245 236 236 228 224 229 229 227 223 224 230 230 231 228 224 222 228 234 232 234 232 228 225 224 225 228 232 239 252 266 273 283 289 298 301 294 284 275 275 272 267
205 207 206 199 198 197 189 184 205 293 340 350 355 355 343 333 324 319 317 315 306 302 308 304 296 300 282 273 304 309 293 284 275 265 303 310 304 332 343 3 23 11 350 333 287 253 246 236 231 232 229 231 229 222 224 230 232 232 230 222 223 229 230 231 234 236 236 234 234 235 239 242 249 262 273 282 291 301 301 297 288 277 274 272 272
206 207 206 201 199 197 198 209 238 294 318 333 344 347 339 327 322 318 317 317 312 309 317 314 293 295 302 300 303 297 292 301 286 255 312 316 291 289 299 330 344 345 338 329 317 270 246 239 231 234 229 227 230 226 222 228 234 234 232 228 223 220 224 227 228 234 239 244 245 244 245 244 244 251 258 266 276 292 297 295 290 281 278 277 281
208 209 207 204 204 208 218 235 262 289 304 316 329 336 333 322 319 318 315 315 313 313 319 311 288 301 311 312 313 299 291 297 277 226 315 328 296 281 279 306 319 318 324 324 322 302 259 240 228 233 233 230 232 231 228 228 236 239 234 232 228 223 227 228 225 230 235 244 252 251 250 246 243 244 244 250 256 267 275 276 279 280 279 280 285
212 213 213 212 213 219 231 247 268 285 297 308 320 327 324 318 317 315 313 316 314 310 307 282 275 291 284 309 326 311 282 261 244 242 294 317 298 277 271 289 305 305 311 311 311 310 281 242 230 235 237 237 235 234 236 232 236 242 241 239 237 234 233 231 230 234 235 240 249 253 254 253 254 252 248 249 252 256 260 262 265 269 273 277 282
217 218 218 219 222 228 238 251 269 281 296 309 315 318 316 314 313 312 314 318 315 303 287 262 267 284 278 307 336 334 292 253 264 273 285 301 286 261 260 275 290 300 306 307 306 305 292 243 232 235 226 232 236 235 236 233 236 241 243 246 248 244 238 234 235 240 241 243 246 247 248 246 249 255 256 258 260 262 263 264 267 269 271 273 274
221 222 222 225 231 236 243 253 270 283 298 310 311 313 312 310 311 312 315 316 314 299 281 268 263 276 275 303 337 343 328 295 270 266 280 290 265 244 247 263 278 293 303 315 319 305 295 258 240 231 209 219 233 233 229 229 236 238 237 240 245 249 246 241 239 242 244 246 247 249 253 250 246 251 258 262 263 267 269 270 271 271 273 275 274
222 224 227 232 237 242 246 255 270 285 298 305 308 311 312 311 313 314 317 316 312 293 280 276 274 272 265 293 335 336 333 336 284 240 311 295 262 235 231 247 261 280 304 342 354 320 311 299 275 212 196 217 229 233 228 227 235 238 238 240 243 248 250 247 241 240 242 244 248 253 262 265 258 251 253 256 256 259 266 268 268 270 273 274 273
224 227 231 235 239 242 247 256 266 278 290 298 305 309 310 311 312 315 321 320 312 286 277 283 291 260 250 284 331 323 316 340 348 31 16 342 221 208 212 227 224 108 5 2 359 332 323 323 325 188 193 213 224 239 246 245 245 241 241 244 247 249 251 249 243 243 244 243 247 253 258 261 258 253 253 256 255 254 257 256 258 263 269 269 269
224 228 231 234 236 239 244 254 264 275 285 291 300 303 305 307 307 314 322 321 313 287 280 290 291 235 244 276 308 310 302 328 349 343 350 73 85 103 121 109 108 64 16 357 342 329 320 323 324 274 220 225 225 240 262 267 266 258 250 247 249 252 253 252 247 249 251 247 247 250 253 256 258 261 262 262 262 260 259 257 256 258 263 268 271
224 227 228 229 232 236 244 253 263 273 282 290 299 301 300 300 304 314 318 314 301 287 285 288 277 254 257 265 271 291 294 306 326 298 232 76 76 84 88 94 87 45 7 357 345 330 323 319 303 274 259 251 241 243 266 275 280 283 268 259 258 261 259 255 252 252 255 253 252 252 255 257 260 264 266 265 264 265 266 265 263 261 263 267 268
224 225 226 228 233 238 245 252 260 269 282 295 300 297 294 296 306 317 315 305 288 281 282 280 291 293 278 262 257 266 271 285 307 277 208 102 92 97 93 92 78 42 6 357 354 344 334 329 316 293 295 295 292 284 274 274 278 270 266 269 275 276 267 255 251 250 253 255 256 258 260 261 263 266 269 269 267 268 270 268 266 266 266 268 268
225 227 228 231 236 240 245 252 258 269 283 293 295 292 292 295 307 317 311 296 284 275 276 285 299 302 291 277 260 255 255 266 288 258 208 133 112 112 99 83 60 28 9 2 3 6 352 347 3 16 2 31 5 292 273 255 262 264 262 260 257 263 266 255 245 244 249 252 254 256 260 264 266 264 267 271 273 275 273 268 266 267 266 266 268
227 229 231 234 238 242 247 253 259 268 278 285 289 290 292 296 307 316 309 292 282 273 278 292 300 297 293 288 260 254 253 256 269 240 209 163 129 127 101 65 42 14 4 5 3 8 7 360 21 49 64 81 94 78 345 335 329 309 281 260 249 250 258 255 237 233 239 247 251 253 258 266 266 262 264 270 274 275 271 267 264 264 266 266 266
229 231 233 235 239 244 247 253 259 267 276 281 286 289 293 298 306 310 303 292 285 279 286 292 283 277 281 263 230 236 241 241 247 224 207 191 157 144 113 46 32 13 8 23 18 8 8 347 4 50 62 60 64 59 28 31 47 35 27 27 19 14 13 29 73 188 228 242 254 261 262 263 265 267 269 271 274 275 273 271 264 264 268 269 269
232 234 236 237 240 245 248 252 258 266 273 278 284 290 295 300 303 303 296 289 283 282 289 286 261 245 243 227 211 213 222 221 227 217 205 202 194 180 178 235 18 26 37 55 62 61 66 65 58 56 57 54 38 26 22 44 60 47 45 49 47 50 52 54 59 61 49 7 317 299 279 270 274 281 285 288 292 290 285 279 271 267 270 272 274
234 237 239 239 241 244 247 252 257 263 270 278 285 290 295 299 301 300 294 285 277 278 283 274 242 227 216 199 192 204 217 208 212 215 210 212 214 204 202 209 213 75 88 92 90 82 75 67 59 51 48 54 60 60 351 289 68 72 73 69 59 57 58 58 57 56 51 32 3 338 320 310 307 305 303 304 301 295 290 285 279 274 273 275 276
236 238 240 241 242 244 247 251 255 260 267 276 282 287 294 297 297 295 291 284 278 276 276 260 234 230 226 220 205 191 204 205 209 219 220 227 230 220 211 207 197 171 128 117 110 92 80 70 60 41 17 6 20 70 172 136 101 107 114 118 90 69 68 72 70 68 61 37 6 339 328 319 314 313 308 306 300 295 291 288 286 284 282 282 281
236 238 241 242 244 245 246 249 253 257 264 271 278 285 290 292 292 289 283 281 282 279 270 249 232 232 232 234 230 212 204 211 217 231 235 238 238 223 212 211 205 192 165 145 139 117 82 72 65 46 12 335 20 53 90 94 99 100 90 82 75 76 87 98 105 104 90 65 21 339 328 318 311 307 303 299 295 292 288 284 282 283 285 285 286
236 238 240 242 244 245 246 248 251 255 260 266 274 281 285 286 286 284 281 282 286 281 262 237 223 230 237 240 239 224 218 228 234 243 247 243 231 215 210 215 216 208 192 174 168 162 121 83 81 78 78 101 102 98 101 102 100 91 76 69 71 73 78 82 84 82 72 52 26 2 347 337 328 320 310 301 295 291 290 287 285 284 284 284 284
236 237 239 241 242 244 247 248 250 253 259 264 270 276 281 283 282 282 282 279 280 272 252 229 216 223 236 245 248 231 222 231 239 241 241 233 214 209 216 225 225 222 214 201 195 190 182 137 118 129 120 127 127 119 113 108 99 88 75 65 66 64 60 58 53 50 41 27 14 2 352 344 339 333 326 318 308 300 295 292 292 290 290 289 287
237 238 238 240 241 243 245 247 250 252 257 262 267 271 275 278 279 278 274 271 268 259 243 228 219 222 232 243 248 239 228 231 235 235 234 229 219 216 227 232 231 233 233 224 215 210 213 207 176 158 150 150 150 141 134 129 116 96 78 60 53 44 37 33 26 20 13 7 1 353 349 341 334 327 321 315 308 303 298 295 295 294 293 292 291
237 238 239 240 241 242 244 247 249 251 255 260 262 266 270 271 270 268 266 263 259 251 239 229 226 227 235 243 247 243 236 235 236 235 233 232 235 238 241 240 236 238 241 236 227 223 227 228 227 214 190 181 179 178 180 185 192 197 219 343 350 354 356 356 357 353 341 333 327 323 322 320 317 312 304 299 294 291 290 289 289 290 290 290 290
235 237 238 240 241 242 243 246 248 250 253 258 259 260 263 263 262 260 259 255 250 247 240 232 232 234 239 245 246 242 240 237 233 232 233 236 242 248 250 248 246 245 244 239 232 232 233 236 241 242 237 227 216 211 214 219 224 230 243 263 281 297 308 313 315 316 314 310 308 310 311 311 311 310 306 301 293 288 284 283 283 283 283 285 285
233 235 237 239 241 242 244 247 250 252 254 257 257 256 257 258 257 255 254 251 247 245 240 235 234 234 236 238 236 235 241 241 235 232 235 241 244 247 250 252 253 252 247 240 237 239 239 239 244 250 255 254 248 246 246 246 245 242 244 252 258 266 275 283 289 296 302 304 305 306 307 307 306 304 303 300 296 293 288 284 282 281 281 281 282
234 237 239 240 242 243 246 249 253 254 254 254 254 252 253 254 253 252 251 249 245 243 239 233 230 229 230 232 232 231 235 240 240 237 236 242 245 245 252 254 249 246 247 245 246 248 248 249 250 254 260 263 262 263 267 271 269 258 252 257 264 268 270 274 280 288 295 299 301 301 301 300 299 298 296 294 293 291 290 288 286 284 283 283 283
236 238 240 242 244 246 248 251 254 255 253 251 250 249 249 250 249 249 248 246 243 240 237 232 231 231 231 231 233 236 237 237 240 241 241 244 243 240 246 247 239 241 247 252 256 257 258 261 261 260 264 266 268 271 275 279 279 269 259 264 275 278 276 277 281 288 294 298 300 299 298 297 297 296 295 292 291 289 289 289 289 288 286 286 286
238 238 239 241 244 246 248 251 254 255 253 250 248 246 245 246 247 246 245 245 243 240 237 234 233 235 237 237 237 241 243 239 238 241 245 249 248 241 237 234 233 242 252 257 263 267 268 268 268 271 272 270 272 275 278 279 279 276 269 272 279 281 282 283 287 292 296 299 300 300 299 298 297 296 294 292 291 289 289 288 289 289 289 288 286
239 237 237 239 242 244 247 249 252 253 252 248 246 244 243 244 244 244 244 244 243 242 240 235 233 234 238 241 241 243 245 244 242 242 244 250 253 249 244 241 241 245 251 261 269 270 272 271 272 281 285 280 277 277 277 279 281 282 279 279 282 284 286 287 290 293 297 300 303 304 304 302 300 297 295 294 292 291 289 288 288 288 289 288 286
237 234 234 236 239 242 244 246 249 250 249 247 244 242 242 242 242 241 242 242 241 241 239 236 234 233 235 239 241 242 243 246 248 248 249 251 253 253 253 252 250 248 250 261 271 272 273 275 279 290 294 288 281 279 278 279 281 282 281 282 284 286 286 289 294 299 303 306 307 307 305 303 301 299 298 296 294 293 291 290 289 289 289 288 286
235 232 231 232 235 239 241 244 246 246 246 245 242 241 242 242 240 240 240 240 240 240 238 237 234 232 234 236 239 241 242 244 248 251 254 255 254 254 254 253 253 253 255 261 266 268 273 279 286 293 295 288 282 281 279 280 282 282 281 279 279 279 283 293 302 307 309 310 308 306 303 301 300 299 298 297 295 292 290 288 288 288 289 288 286
233 232 231 231 232 235 238 241 243 243 243 242 241 241 242 241 240 239 238 239 240 240 238 237 236 234 234 236 238 239 240 242 246 250 254 256 256 255 253 253 253 255 258 260 262 266 273 279 286 292 292 285 280 279 277 279 282 281 280 276 272 276 288 299 306 309 312 313 312 309 305 302 301 299 298 297 295 293 289 286 285 284 285 286 286
234 232 232 231 231 233 236 239 241 241 241 241 241 241 242 242 240 239 239 238 240 240 239 238 237 236 235 237 239 239 240 242 244 248 251 254 256 257 256 255 255 257 259 260 263 268 273 277 281 285 285 279 276 276 274 275 276 276 274 269 268 277 291 299 303 307 313 316 317 315 309 305 302 300 297 295 295 293 289 285 282 280 280 281 282
234 233 232 232 231 232 234 237 238 239 240 240 242 242 242 242 241 239 238 238 239 240 240 238 238 238 238 239 241 242 243 245 246 248 250 252 254 256 259 259 260 262 261 261 264 267 271 276 277 276 276 275 272 270 268 265 266 267 265 262 266 274 284 292 301 310 317 320 320 319 314 308 303 300 296 292 291 291 289 285 281 278 276 275 275
236 234 232 232 232 232 234 236 237 238 238 239 241 242 242 242 242 240 239 239 240 241 241 241 241 241 241 242 244 245 246 249 251 253 254 255 255 256 259 262 264 266 264 262 264 265 268 273 273 270 271 272 271 268 265 261 260 261 258 257 263 271 281 292 306 317 323 325 325 322 317 310 304 300 296 291 287 287 287 286 284 281 277 274 272
237 235 234 234 234 233 233 235 236 236 237 238 239 241 241 242 242 241 240 240 241 242 243 244 245 246 246 246 248 250 251 253 254 256 257 258 259 259 260 262 263 265 265 262 261 262 263 266 269 269 269 270 269 266 263 260 258 256 253 255 262 271 283 297 308 317 324 328 327 324 318 312 307 303 300 294 287 284 283 283 283 283 281 279 277
237 236 235 235 235 234 233 234 236 236 236 237 239 239 240 241 241 242 242 241 242 243 245 245 246 247 248 249 250 251 253 254 256 257 257 258 259 260 260 261 261 261 263 262 259 256 257 261 266 268 266 267 266 262 259 259 258 255 253 258 264 273 285 296 303 310 321 328 327 324 321 316 311 308 305 299 291 286 284 283 283 283 282 281 281
236 236 235 235 235 235 234 234 235 236 236 237 239 239 239 240 240 241 242 242 242 244 245 246 247 247 247 248 249 250 251 253 254 256 257 258 258 257 257 258 259 259 259 259 258 255 255 259 263 264 264 265 265 263 260 258 258 257 257 262 267 271 280 288 294 304 317 323 323 323 322 317 312 311 309 304 298 292 290 289 289 287 286 285 284
237 236 236 236 236 236 235 235 236 236 237 238 239 239 239 239 239 240 242 242 243 243 244 246 246 246 246 245 246 248 249 250 251 252 254 255 255 255 255 256 257 257 256 257 256 254 255 259 261 264 266 266 264 263 262 260 259 258 259 264 269 271 277 283 290 303 315 317 317 319 319 315 310 308 307 304 301 298 297 296 296 294 291 289 287
238 237 237 237 237 237 237 236 236 236 236 237 238 238 238 238 239 239 240 241 242 243 244 245 245 245 244 243 243 245 246 248 249 251 251 252 253 254 253 253 255 256 255 255 255 253 254 257 261 265 267 267 264 263 264 262 260 261 262 264 268 272 278 284 290 299 306 310 312 313 315 313 306 302 302 302 301 301 300 300 300 299 295 291 289
239 238 238 239 239 239 239 238 237 236 236 236 237 237 237 237 238 238 239 240 240 241 242 243 243 244 243 242 242 243 245 248 249 250 251 253 254 253 251 251 253 255 256 255 255 254 253 254 258 261 263 265 266 265 265 264 263 264 265 266 267 271 278 285 290 294 298 303 305 307 311 309 300 296 299 301 302 303 302 302 302 299 296 293 291
238 238 238 239 239 240 240 239 238 238 236 236 236 237 237 237 237 238 238 239 239 240 241 241 241 242 243 244 244 244 246 248 248 248 250 254 256 256 253 249 249 251 254 253 253 252 251 251 254 256 258 263 267 266 263 265 267 268 269 270 272 275 281 286 290 294 299 302 302 303 306 302 294 296 301 304 308 309 308 308 305 300 296 293 292
238 238 238 238 240 241 241 240 239 239 237 236 236 237 238 237 238 237 237 238 239 239 241 241 241 242 244 246 245 243 243 245 247 249 251 256 259 258 252 246 243 244 246 248 249 249 248 249 251 253 256 261 265 263 265 271 275 275 274 274 277 282 285 286 290 297 301 302 300 299 299 296 296 301 304 307 311 310 308 308 305 301 296 292 291
239 238 238 238 239 241 242 242 241 240 239 238 237 238 238 238 238 238 237 237 238 239 240 240 241 242 244 245 244 241 241 242 245 250 254 258 261 258 251 245 241 238 239 242 245 246 246 247 247 248 253 259 261 264 272 279 280 278 276 276 280 285 286 285 290 297 300 300 299 296 294 296 301 304 306 308 310 307 307 308 305 300 297 294 292
239 240 239 239 239 241 242 243 243 242 242 240 239 239 239 238 238 237 237 237 238 240 240 239 240 241 243 244 244 242 240 239 241 248 255 259 261 260 252 244 238 234 233 235 238 241 243 243 243 245 249 255 261 268 277 281 281 280 278 278 282 285 285 284 288 293 296 297 298 295 292 297 304 305 306 310 311 310 310 309 306 302 298 296 294
240 240 240 240 240 241 243 244 245 245 244 243 242 240 239 238 237 237 237 237 239 241 240 239 239 241 243 244 244 242 240 238 239 247 256 259 259 258 251 241 235 231 229 230 233 235 236 236 238 243 249 256 262 268 275 279 280 280 279 279 281 281 281 282 287 292 293 293 295 295 294 300 305 307 310 313 314 312 311 309 306 304 302 301 301
240 241 240 241 241 242 243 244 246 246 245 245 245 243 241 239 238 237 237 237 240 242 241 239 239 241 243 245 245 243 240 238 239 245 255 258 255 255 249 238 231 229 229 230 232 234 235 235 236 241 249 257 261 267 274 278 280 279 278 277 275 275 278 284 289 292 290 289 295 297 297 301 306 307 310 313 312 311 310 309 308 308 308 308 309
241 241 241 241 242 242 243 244 245 246 246 247 248 246 244 242 240 239 237 237 240 243 242 239 239 241 243 243 244 243 242 240 241 244 250 253 250 250 243 232 227 227 228 231 232 233 235 236 235 238 245 252 260 269 276 280 279 275 271 269 270 274 279 284 286 287 285 287 296 300 298 301 307 308 309 313 313 311 312 312 312 313 313 313 314
241 241 241 240 241 242 243 244 245 246 247 248 250 249 248 246 244 241 239 238 240 243 243 241 239 240 241 241 242 244 245 245 244 242 243 245 243 242 235 227 224 223 226 231 231 229 230 231 230 233 240 250 261 269 275 276 271 265 262 266 273 273 271 274 276 280 282 285 293 300 299 301 309 312 313 317 317 315 316 318 318 317 317 318 319
240 241 241 241 241 241 242 244 246 247 248 248 250 251 249 247 245 243 242 240 241 244 244 242 241 241 240 241 242 244 245 245 242 238 237 237 236 233 229 224 222 220 222 226 225 222 223 223 223 229 239 252 261 265 267 265 260 258 260 266 270 260 258 267 273 278 284 283 286 299 304 305 312 317 317 320 320 317 317 320 321 322 323 324 324
241 241 241 241 241 240 241 243 245 247 247 248 250 250 248 246 245 245 244 242 242 244 243 242 241 241 240 239 240 241 241 240 237 231 228 228 227 226 224 222 220 218 219 223 222 218 217 217 221 233 244 252 257 257 257 258 256 257 260 263 263 261 265 270 266 269 281 280 283 300 308 310 315 319 319 319 317 313 316 320 323 326 326 325 323